RYR9VG LEXJ-EGSS

Flight info

Callsign RYR9VG
Flight time 1h 35m
Altitude 34000
Route VADOX N864 DELOG DCT DIDIG UP87 TERPO UN867 EKRAS UM184 DIKRO UM185 TELTU
Aircraft B738/M-SDE2E3FGHIRWXY/LB1

Departure

Time 2026-04-21 07:36
Airport Seve Ballesteros-Santander Airport (LEXJ)

Arrival

Time 2026-04-21 09:11
Airport London Stansted Airport (EGSS)
Time Latitude Longitude Altitude Speed Heading
2026-04-21 07:12 43.42381 -3.82298 18 ft 0 kts 234°
2026-04-21 07:30 43.42381 -3.82299 18 ft 0 kts 234°
2026-04-21 07:31 43.42384 -3.82317 19 ft 1 kts 302°
2026-04-21 07:31 43.42391 -3.82315 20 ft 1 kts 18°
2026-04-21 07:31 43.42410 -3.82301 18 ft 7 kts 14°
2026-04-21 07:31 43.42466 -3.82354 18 ft 13 kts 354°
2026-04-21 07:32 43.42554 -3.82314 18 ft 13 kts 20°
2026-04-21 07:32 43.42631 -3.82352 18 ft 14 kts 292°
2026-04-21 07:32 43.42665 -3.82477 19 ft 15 kts 289°
2026-04-21 07:32 43.42703 -3.82618 18 ft 16 kts 291°
2026-04-21 07:33 43.42740 -3.82754 19 ft 15 kts 290°
2026-04-21 07:33 43.42774 -3.82886 18 ft 14 kts 290°
2026-04-21 07:33 43.42813 -3.83007 18 ft 14 kts 310°
2026-04-21 07:33 43.42838 -3.83035 18 ft 0 kts 332°
2026-04-21 07:34 43.42843 -3.83038 18 ft 3 kts 334°
2026-04-21 07:34 43.42902 -3.83075 20 ft 15 kts 336°
2026-04-21 07:34 43.43013 -3.83161 18 ft 20 kts 308°
2026-04-21 07:34 43.43032 -3.83340 18 ft 9 kts 275°
2026-04-21 07:35 43.43069 -3.83338 18 ft 9 kts 91°
2026-04-21 07:35 43.43043 -3.83261 21 ft 10 kts 108°
2026-04-21 07:35 43.42970 -3.82987 19 ft 68 kts 110°
2026-04-21 07:35 43.42712 -3.82022 18 ft 144 kts 110°
2026-04-21 07:36 43.42303 -3.80539 472 ft 170 kts 110°
2026-04-21 07:36 43.41907 -3.79040 1493 ft 173 kts 110°
2026-04-21 07:36 43.41481 -3.77378 2097 ft 200 kts 111°
2026-04-21 07:36 43.40981 -3.75452 2334 ft 227 kts 111°
2026-04-21 07:37 43.40751 -3.73221 2613 ft 252 kts 84°
2026-04-21 07:37 43.41448 -3.70927 3085 ft 272 kts 51°
2026-04-21 07:37 43.43031 -3.69486 3867 ft 279 kts 16°
2026-04-21 07:37 43.44947 -3.69122 4768 ft 281 kts 357°
2026-04-21 07:38 43.46885 -3.69502 5594 ft 283 kts 346°
2026-04-21 07:38 43.48793 -3.70190 6442 ft 285 kts 341°
2026-04-21 07:38 43.50664 -3.71103 7260 ft 286 kts 335°
2026-04-21 07:38 43.52453 -3.72306 8088 ft 287 kts 328°
2026-04-21 07:39 43.54137 -3.73780 8925 ft 288 kts 326°
2026-04-21 07:39 43.55842 -3.75260 9754 ft 291 kts 326°
2026-04-21 07:39 43.57579 -3.76747 10326 ft 302 kts 326°
2026-04-21 07:39 43.59441 -3.78344 10497 ft 327 kts 326°
2026-04-21 07:40 43.61421 -3.80048 10900 ft 341 kts 326°
2026-04-21 07:40 43.63449 -3.81797 11561 ft 347 kts 326°
2026-04-21 07:40 43.65502 -3.83571 12339 ft 349 kts 326°
2026-04-21 07:40 43.67564 -3.85357 13120 ft 351 kts 326°
2026-04-21 07:41 43.69644 -3.87162 13830 ft 355 kts 326°
2026-04-21 07:41 43.71746 -3.88988 14487 ft 358 kts 326°
2026-04-21 07:41 43.73864 -3.90829 15162 ft 361 kts 326°
2026-04-21 07:41 43.76105 -3.92438 15810 ft 367 kts 336°
2026-04-21 07:42 43.78568 -3.93464 16461 ft 373 kts 347°
2026-04-21 07:42 43.81157 -3.93896 17111 ft 377 kts 353°
2026-04-21 07:42 43.83792 -3.94147 17740 ft 382 kts 354°
2026-04-21 07:42 43.86455 -3.94361 18325 ft 386 kts 354°
2026-04-21 07:43 43.89146 -3.94577 18882 ft 388 kts 354°
2026-04-21 07:43 43.91853 -3.94807 19464 ft 391 kts 354°
2026-04-21 07:43 43.94571 -3.95053 20004 ft 394 kts 354°
2026-04-21 07:43 43.97319 -3.95311 20542 ft 397 kts 354°
2026-04-21 07:44 44.00081 -3.95577 21084 ft 399 kts 353°
2026-04-21 07:44 44.02751 -3.95837 21587 ft 402 kts 353°
2026-04-21 07:44 44.05552 -3.96111 22110 ft 405 kts 353°
2026-04-21 07:44 44.08379 -3.96389 22614 ft 408 kts 353°
2026-04-21 07:45 44.11224 -3.96668 23115 ft 412 kts 353°
2026-04-21 07:45 44.14089 -3.96949 23584 ft 415 kts 353°
2026-04-21 07:45 44.16977 -3.97233 24011 ft 417 kts 353°
2026-04-21 07:45 44.19873 -3.97517 24440 ft 419 kts 353°
2026-04-21 07:46 44.22785 -3.97803 24855 ft 421 kts 353°
2026-04-21 07:46 44.25677 -3.98088 25260 ft 423 kts 353°
2026-04-21 07:46 44.28616 -3.98375 25659 ft 425 kts 354°
2026-04-21 07:46 44.31592 -3.98176 26016 ft 433 kts
2026-04-21 07:47 44.34501 -3.97000 26427 ft 439 kts 21°
2026-04-21 07:47 44.37181 -3.94918 26816 ft 444 kts 32°
2026-04-21 07:47 44.39728 -3.92454 27191 ft 446 kts 33°
2026-04-21 07:47 44.42259 -3.89922 27528 ft 449 kts 33°
2026-04-21 07:48 44.44806 -3.87356 27870 ft 452 kts 33°
2026-04-21 07:48 44.47368 -3.84788 28233 ft 454 kts 33°
2026-04-21 07:48 44.49949 -3.82218 28566 ft 456 kts 33°
2026-04-21 07:48 44.52550 -3.79648 28875 ft 459 kts 32°
2026-04-21 07:49 44.55164 -3.77075 29216 ft 460 kts 32°
2026-04-21 07:49 44.57787 -3.74498 29654 ft 459 kts 32°
2026-04-21 07:49 44.60397 -3.71934 30150 ft 457 kts 32°
2026-04-21 07:49 44.62991 -3.69383 30563 ft 455 kts 32°
2026-04-21 07:50 44.65585 -3.66831 30919 ft 455 kts 32°
2026-04-21 07:50 44.68174 -3.64281 31259 ft 454 kts 32°
2026-04-21 07:50 44.70761 -3.61730 31612 ft 454 kts 32°
2026-04-21 07:50 44.73337 -3.59185 31983 ft 452 kts 32°
2026-04-21 07:51 44.75912 -3.56639 32334 ft 452 kts 32°
2026-04-21 07:51 44.78480 -3.54097 32674 ft 451 kts 32°
2026-04-21 07:51 44.81045 -3.51555 33001 ft 451 kts 33°
2026-04-21 07:51 44.83603 -3.49017 33343 ft 450 kts 33°
2026-04-21 07:52 44.86158 -3.46479 33667 ft 449 kts 33°
2026-04-21 07:52 44.88706 -3.43945 33941 ft 448 kts 33°
2026-04-21 07:52 44.93819 -3.38854 33922 ft 450 kts 32°
2026-04-21 07:53 44.98923 -3.33758 33929 ft 448 kts 32°
2026-04-21 07:53 45.04005 -3.28673 33926 ft 447 kts 32°
2026-04-21 07:54 45.09042 -3.23622 33934 ft 446 kts 32°
2026-04-21 07:54 45.14099 -3.18541 33936 ft 445 kts 32°
2026-04-21 07:55 45.19148 -3.13456 33939 ft 445 kts 32°
2026-04-21 07:55 45.24191 -3.08366 33941 ft 445 kts 32°
2026-04-21 07:56 45.29233 -3.03264 33941 ft 445 kts 32°
2026-04-21 07:56 45.34278 -2.98150 33944 ft 445 kts 32°
2026-04-21 07:57 45.39320 -2.93027 33955 ft 446 kts 32°
2026-04-21 07:57 45.44368 -2.87886 33956 ft 446 kts 32°
2026-04-21 07:58 45.49414 -2.82735 33960 ft 447 kts 32°
2026-04-21 07:58 45.54465 -2.77568 33962 ft 447 kts 32°
2026-04-21 07:59 45.59483 -2.72422 33966 ft 447 kts 32°
2026-04-21 07:59 45.64533 -2.67233 33973 ft 447 kts 32°
2026-04-21 08:00 45.69584 -2.62029 33976 ft 447 kts 32°
2026-04-21 08:00 45.74636 -2.56814 33976 ft 448 kts 32°
2026-04-21 08:01 45.79677 -2.51598 33985 ft 447 kts 32°
2026-04-21 08:02 45.87232 -2.43757 33991 ft 447 kts 32°
2026-04-21 08:02 45.92262 -2.38522 33990 ft 446 kts 32°
2026-04-21 08:03 45.97277 -2.33291 33989 ft 445 kts 32°
2026-04-21 08:03 46.02292 -2.28068 34001 ft 444 kts 29°
2026-04-21 08:04 46.07778 -2.24378 34007 ft 431 kts 11°
2026-04-21 08:04 46.13614 -2.22802 34010 ft 425 kts
2026-04-21 08:05 46.19460 -2.21467 34010 ft 425 kts
2026-04-21 08:05 46.25305 -2.20089 34021 ft 426 kts
2026-04-21 08:06 46.30162 -2.18912 34023 ft 426 kts
2026-04-21 08:06 46.35998 -2.17481 34034 ft 425 kts
2026-04-21 08:07 46.41829 -2.16047 34018 ft 425 kts
2026-04-21 08:07 46.47657 -2.14610 34033 ft 424 kts
2026-04-21 08:08 46.53472 -2.13175 34038 ft 424 kts
2026-04-21 08:08 46.59277 -2.11739 34039 ft 423 kts
2026-04-21 08:09 46.65078 -2.10301 34042 ft 422 kts
2026-04-21 08:09 46.70870 -2.08862 34043 ft 422 kts
2026-04-21 08:10 46.76649 -2.07423 34049 ft 421 kts
2026-04-21 08:10 46.82420 -2.05983 34054 ft 420 kts
2026-04-21 08:11 46.88187 -2.04541 34058 ft 420 kts
2026-04-21 08:11 46.93948 -2.03097 34063 ft 420 kts
2026-04-21 08:12 46.99710 -2.01650 34067 ft 420 kts
2026-04-21 08:12 47.05476 -2.00215 34074 ft 420 kts
2026-04-21 08:13 47.11249 -1.98790 34077 ft 421 kts
2026-04-21 08:13 47.17026 -1.97358 34080 ft 422 kts
2026-04-21 08:14 47.22782 -1.95926 34077 ft 422 kts
2026-04-21 08:14 47.28621 -1.94470 34085 ft 423 kts
2026-04-21 08:15 47.34386 -1.92904 34072 ft 427 kts 11°
2026-04-21 08:15 47.39917 -1.89511 34088 ft 434 kts 22°
2026-04-21 08:16 47.45323 -1.85518 34089 ft 435 kts 22°
2026-04-21 08:16 47.50738 -1.81535 34095 ft 435 kts 22°
2026-04-21 08:17 47.56168 -1.77590 34108 ft 435 kts 21°
2026-04-21 08:17 47.61603 -1.73655 34114 ft 435 kts 21°
2026-04-21 08:18 47.67037 -1.69714 34119 ft 434 kts 21°
2026-04-21 08:18 47.72463 -1.65768 34126 ft 434 kts 21°
2026-04-21 08:19 47.77886 -1.61814 34119 ft 434 kts 21°
2026-04-21 08:19 47.83298 -1.57858 34138 ft 433 kts 21°
2026-04-21 08:20 47.88701 -1.53900 34128 ft 432 kts 21°
2026-04-21 08:20 47.94087 -1.49945 34135 ft 431 kts 21°
2026-04-21 08:21 47.99438 -1.46033 34132 ft 429 kts 18°
2026-04-21 08:21 48.05109 -1.43869 34146 ft 416 kts
2026-04-21 08:22 48.10838 -1.44021 34139 ft 411 kts 352°
2026-04-21 08:22 48.16535 -1.44514 34142 ft 410 kts 352°
2026-04-21 08:23 48.22241 -1.44975 34142 ft 410 kts 352°
2026-04-21 08:23 48.27942 -1.45398 34156 ft 410 kts 353°
2026-04-21 08:24 48.33641 -1.45809 34160 ft 410 kts 353°
2026-04-21 08:24 48.39340 -1.46218 34170 ft 410 kts 352°
2026-04-21 08:25 48.45039 -1.46629 34167 ft 410 kts 352°
2026-04-21 08:25 48.50737 -1.47041 34171 ft 410 kts 352°
2026-04-21 08:26 48.56431 -1.47454 34177 ft 410 kts 352°
2026-04-21 08:26 48.62123 -1.47867 34181 ft 409 kts 352°
2026-04-21 08:27 48.67810 -1.48281 34181 ft 409 kts 352°
2026-04-21 08:27 48.73487 -1.48696 34189 ft 408 kts 352°
2026-04-21 08:28 48.79160 -1.49111 34193 ft 408 kts 352°
2026-04-21 08:28 48.84825 -1.49527 34194 ft 407 kts 352°
2026-04-21 08:29 48.90514 -1.49239 34206 ft 415 kts
2026-04-21 08:29 48.96049 -1.46649 34213 ft 422 kts 14°
2026-04-21 08:30 49.01542 -1.43484 34209 ft 422 kts 14°
2026-04-21 08:30 49.07037 -1.40335 34207 ft 421 kts 14°
2026-04-21 08:31 49.12530 -1.37228 34209 ft 421 kts 14°
2026-04-21 08:31 49.18022 -1.34134 34207 ft 421 kts 14°
2026-04-21 08:32 49.23515 -1.31033 34212 ft 420 kts 14°
2026-04-21 08:32 49.28995 -1.27932 34211 ft 420 kts 14°
2026-04-21 08:33 49.34504 -1.25025 34212 ft 416 kts
2026-04-21 08:33 49.40083 -1.22748 34224 ft 414 kts
2026-04-21 08:34 49.45673 -1.20549 34221 ft 415 kts
2026-04-21 08:34 49.51253 -1.18288 34234 ft 415 kts
2026-04-21 08:35 49.56841 -1.15976 34235 ft 416 kts
2026-04-21 08:35 49.62425 -1.13645 34232 ft 416 kts
2026-04-21 08:36 49.68015 -1.11303 34237 ft 416 kts
2026-04-21 08:36 49.73609 -1.08955 34239 ft 417 kts
2026-04-21 08:37 49.79202 -1.06602 34251 ft 417 kts
2026-04-21 08:37 49.84802 -1.04241 34246 ft 417 kts
2026-04-21 08:38 49.90405 -1.01873 34258 ft 417 kts
2026-04-21 08:38 49.96006 -0.99500 34260 ft 418 kts
2026-04-21 08:39 50.01615 -0.97118 34268 ft 418 kts
2026-04-21 08:39 50.07225 -0.94729 34220 ft 417 kts
2026-04-21 08:39 50.09997 -0.93543 33887 ft 409 kts
2026-04-21 08:40 50.12716 -0.92375 33622 ft 402 kts
2026-04-21 08:40 50.15390 -0.91226 33339 ft 395 kts
2026-04-21 08:40 50.18015 -0.90099 33081 ft 388 kts
2026-04-21 08:40 50.20598 -0.88990 32795 ft 381 kts
2026-04-21 08:41 50.23104 -0.87914 32535 ft 376 kts
2026-04-21 08:41 50.25614 -0.86838 32279 ft 372 kts
2026-04-21 08:41 50.28143 -0.85755 32026 ft 373 kts
2026-04-21 08:41 50.30655 -0.84682 31784 ft 376 kts
2026-04-21 08:42 50.33182 -0.83601 31540 ft 376 kts
2026-04-21 08:42 50.35699 -0.82516 31288 ft 374 kts
2026-04-21 08:42 50.38163 -0.81450 31048 ft 371 kts
2026-04-21 08:42 50.40646 -0.80375 30799 ft 369 kts
2026-04-21 08:43 50.43115 -0.79305 30558 ft 367 kts
2026-04-21 08:43 50.45566 -0.78242 30311 ft 365 kts
2026-04-21 08:43 50.48008 -0.77183 30029 ft 363 kts
2026-04-21 08:43 50.50435 -0.76130 29747 ft 361 kts
2026-04-21 08:44 50.52849 -0.75081 29469 ft 359 kts
2026-04-21 08:44 50.55253 -0.74036 29197 ft 358 kts
2026-04-21 08:44 50.57643 -0.72995 28923 ft 356 kts
2026-04-21 08:44 50.60025 -0.71957 28653 ft 355 kts
2026-04-21 08:45 50.62397 -0.70923 28388 ft 353 kts
2026-04-21 08:45 50.64760 -0.69891 28130 ft 352 kts
2026-04-21 08:45 50.67115 -0.68861 27862 ft 350 kts
2026-04-21 08:45 50.69449 -0.67839 27595 ft 347 kts
2026-04-21 08:46 50.71758 -0.66824 27289 ft 342 kts
2026-04-21 08:46 50.74046 -0.65818 26938 ft 340 kts
2026-04-21 08:46 50.76310 -0.64824 26600 ft 337 kts
2026-04-21 08:46 50.78557 -0.63836 26268 ft 334 kts
2026-04-21 08:47 50.80784 -0.62857 25938 ft 331 kts
2026-04-21 08:47 50.82997 -0.61883 25608 ft 329 kts
2026-04-21 08:47 50.85193 -0.60916 25282 ft 327 kts
2026-04-21 08:47 50.87376 -0.59953 24954 ft 324 kts
2026-04-21 08:48 50.89542 -0.58997 24637 ft 323 kts
2026-04-21 08:48 50.91703 -0.58043 24312 ft 321 kts
2026-04-21 08:48 50.93847 -0.57095 23997 ft 320 kts
2026-04-21 08:48 50.95983 -0.56150 23631 ft 318 kts
2026-04-21 08:49 50.98108 -0.55208 23269 ft 316 kts
2026-04-21 08:49 51.00216 -0.54272 22954 ft 313 kts
2026-04-21 08:49 51.02304 -0.53344 22627 ft 310 kts
2026-04-21 08:49 51.04372 -0.52424 22317 ft 308 kts
2026-04-21 08:50 51.06426 -0.51510 22010 ft 305 kts
2026-04-21 08:50 51.08465 -0.50602 21660 ft 304 kts 10°
2026-04-21 08:50 51.10491 -0.49699 21399 ft 300 kts 10°
2026-04-21 08:50 51.12496 -0.48804 21076 ft 299 kts 11°
2026-04-21 08:51 51.14490 -0.47914 20770 ft 297 kts 11°
2026-04-21 08:51 51.16475 -0.47028 20470 ft 295 kts 12°
2026-04-21 08:51 51.18447 -0.46145 20174 ft 293 kts 12°
2026-04-21 08:51 51.20408 -0.45268 19884 ft 292 kts 12°
2026-04-21 08:52 51.22358 -0.44394 19574 ft 291 kts 13°
2026-04-21 08:52 51.24300 -0.43523 19283 ft 289 kts 13°
2026-04-21 08:52 51.25583 -0.42947 19094 ft 288 kts 13°
2026-04-21 08:52 51.27512 -0.42080 18804 ft 287 kts 14°
2026-04-21 08:53 51.29431 -0.41217 18515 ft 286 kts 14°
2026-04-21 08:53 51.31347 -0.40355 18186 ft 285 kts 14°
2026-04-21 08:53 51.33247 -0.39498 17886 ft 283 kts 15°
2026-04-21 08:53 51.35135 -0.38646 17594 ft 281 kts 15°
2026-04-21 08:54 51.37015 -0.37798 17271 ft 281 kts 15°
2026-04-21 08:54 51.38929 -0.36935 16782 ft 290 kts 16°
2026-04-21 08:54 51.40892 -0.36048 16333 ft 295 kts 16°
2026-04-21 08:54 51.42884 -0.35146 15877 ft 300 kts 17°
2026-04-21 08:55 51.44808 -0.33926 15339 ft 296 kts 31°
2026-04-21 08:55 51.46530 -0.32159 14859 ft 293 kts 35°
2026-04-21 08:55 51.48210 -0.30330 14365 ft 291 kts 36°
2026-04-21 08:55 51.49874 -0.28514 13850 ft 289 kts 36°
2026-04-21 08:56 51.51532 -0.26715 13311 ft 287 kts 36°
2026-04-21 08:56 51.53183 -0.24935 12780 ft 285 kts 36°
2026-04-21 08:56 51.54829 -0.23176 12258 ft 283 kts 36°
2026-04-21 08:56 51.56466 -0.21438 11735 ft 282 kts 36°
2026-04-21 08:57 51.58098 -0.19717 11333 ft 280 kts 36°
2026-04-21 08:57 51.59729 -0.18011 10830 ft 278 kts 36°
2026-04-21 08:57 51.61354 -0.16323 10313 ft 278 kts 36°
2026-04-21 08:57 51.62977 -0.14647 9779 ft 276 kts 36°
2026-04-21 08:58 51.64590 -0.12986 9240 ft 275 kts 36°
2026-04-21 08:58 51.66063 -0.11094 8697 ft 269 kts 52°
2026-04-21 08:58 51.67249 -0.08784 8184 ft 267 kts 51°
2026-04-21 08:58 51.68471 -0.06724 7580 ft 271 kts 47°
2026-04-21 08:59 51.69843 -0.04626 6953 ft 273 kts 46°
2026-04-21 08:59 51.71244 -0.02528 6279 ft 276 kts 46°
2026-04-21 08:59 51.72658 -0.00402 5490 ft 281 kts 46°
2026-04-21 08:59 51.74094 0.01765 4711 ft 284 kts 45°
2026-04-21 09:00 51.75543 0.03955 3890 ft 287 kts 45°
2026-04-21 09:00 51.76991 0.06140 3357 ft 280 kts 45°
2026-04-21 09:00 51.78391 0.08250 2964 ft 270 kts 45°
2026-04-21 09:00 51.79746 0.10294 2578 ft 261 kts 44°
2026-04-21 09:01 51.81042 0.12249 2237 ft 248 kts 44°
2026-04-21 09:01 51.82266 0.14093 1883 ft 235 kts 44°
2026-04-21 09:01 51.83404 0.15784 1951 ft 207 kts 39°
2026-04-21 09:01 51.84695 0.16534 1951 ft 199 kts
2026-04-21 09:02 51.85995 0.15835 1992 ft 199 kts 326°
2026-04-21 09:02 51.86760 0.14019 1993 ft 200 kts 288°
2026-04-21 09:02 51.86736 0.11757 2013 ft 205 kts 261°
2026-04-21 09:03 51.86201 0.07249 1993 ft 202 kts 261°
2026-04-21 09:03 51.85940 0.05023 2007 ft 201 kts 261°
2026-04-21 09:03 51.85675 0.02794 1981 ft 201 kts 261°
2026-04-21 09:03 51.85335 0.00617 1971 ft 199 kts 243°
2026-04-21 09:04 51.84384 -0.00923 2014 ft 198 kts 201°
2026-04-21 09:04 51.83055 -0.01382 2022 ft 196 kts 181°
2026-04-21 09:04 51.81699 -0.01602 1975 ft 192 kts 181°
2026-04-21 09:04 51.80388 -0.01822 1969 ft 189 kts 181°
2026-04-21 09:05 51.79068 -0.02037 2067 ft 194 kts 181°
2026-04-21 09:05 51.77749 -0.02250 2029 ft 185 kts 180°
2026-04-21 09:05 51.76520 -0.02357 2016 ft 168 kts 160°
2026-04-21 09:05 51.75674 -0.01327 2040 ft 151 kts 105°
2026-04-21 09:06 51.75655 0.00276 2069 ft 144 kts 81°
2026-04-21 09:06 51.75787 0.01931 1980 ft 152 kts 81°
2026-04-21 09:06 51.75944 0.03592 1974 ft 148 kts 68°
2026-04-21 09:06 51.76572 0.04814 1997 ft 141 kts 46°
2026-04-21 09:07 51.77205 0.06037 2011 ft 145 kts 53°
2026-04-21 09:07 51.77872 0.07311 2023 ft 150 kts 49°
2026-04-21 09:07 51.78602 0.08528 1987 ft 149 kts 46°
2026-04-21 09:07 51.79339 0.09671 1983 ft 144 kts 45°
2026-04-21 09:08 51.80069 0.10779 1997 ft 143 kts 45°
2026-04-21 09:08 51.80784 0.11861 2023 ft 143 kts 45°
2026-04-21 09:08 51.81524 0.12974 2008 ft 147 kts 44°
2026-04-21 09:08 51.82281 0.14117 1870 ft 150 kts 44°
2026-04-21 09:09 51.83032 0.15249 1678 ft 145 kts 45°
2026-04-21 09:09 51.83755 0.16338 1446 ft 140 kts 44°
2026-04-21 09:09 51.84454 0.17395 1265 ft 138 kts 44°
2026-04-21 09:09 51.85157 0.18454 1087 ft 140 kts 45°
2026-04-21 09:10 51.85871 0.19526 862 ft 139 kts 44°
2026-04-21 09:10 51.86564 0.20575 670 ft 133 kts 43°
2026-04-21 09:10 51.87233 0.21579 480 ft 132 kts 44°
2026-04-21 09:10 51.87906 0.22589 348 ft 130 kts 44°
2026-04-21 09:11 51.88509 0.23495 340 ft 103 kts 43°
2026-04-21 09:11 51.88950 0.24155 340 ft 71 kts 43°
2026-04-21 09:11 51.89245 0.24599 337 ft 54 kts 43°
2026-04-21 09:11 51.89473 0.24944 336 ft 30 kts 54°
2026-04-21 09:12 51.89494 0.25163 343 ft 9 kts 91°
2026-04-21 09:12 51.89472 0.25251 348 ft 6 kts 130°
2026-04-21 09:12 51.89463 0.25267 351 ft 0 kts 132°
2026-04-21 09:13 51.89455 0.25280 348 ft 5 kts 133°
2026-04-21 09:13 51.89404 0.25349 348 ft 12 kts 161°
2026-04-21 09:13 51.89331 0.25283 352 ft 13 kts 223°
2026-04-21 09:13 51.89236 0.25198 351 ft 17 kts 165°
2026-04-21 09:14 51.89164 0.25348 351 ft 16 kts 125°
2026-04-21 09:14 51.89111 0.25452 353 ft 8 kts 108°
2026-04-21 09:14 51.89122 0.25507 354 ft 2 kts 56°
2026-04-21 09:14 51.89128 0.25522 356 ft 0 kts 55°